Location: Neuvy Saint Sepulchre
(46.5953°N, 1.8122°E)
Time: 11:34:34
(UTC+02:00)

ISS - Pass Details

Date: 19 April 2026
Orbit: 415 x 424 km, 51.6° (Epoch: 14 April)

Event Time Altitude Azimuth Distance (km) Brightness Sun altitude
Exits shadow 06:12:05 - 209° (SSW) 1,710 -1.2 -8.3°
Reaches altitude 10° 06:12:40 10° 205° (SSW) 1,492 -1.4 -8.2°
Maximum altitude 06:15:40 31° 142° (SE) 762 -2.3 -7.7°
Drops below altitude 10° 06:18:42 10° 78° (ENE) 1,505 0.6 -7.2°
Sets 06:20:56 0° 68° (ENE) 2,374 2.8 -6.9°
